Location: Utrecht
(52.0917°N, 5.1178°E)
Time: 01:19:17
(UTC+02:00)

Amateur Radio Satellites - All Passes

Search period start: 24 August 2017 00:49
Search period end: 25 August 2017 00:49
Location: Utrecht, 52.0917°N, 5.1178°E

Satellite Date Start Highest point End Downlink Frequencies (MHz)
Time Altitude Azimuth
UKube-1 24 Aug 00:51:06 00:53:54 17° 56° (NE) 00:56:41 .
PRISM 24 Aug 00:51:43 00:55:35 39° 293° (WNW) 00:59:25 437.425
SPROUT 24 Aug 01:09:56 01:14:11 79° 254° (WSW) 01:18:29 437.525
DX 1 24 Aug 01:17:33 01:21:36 37° 65° (ENE) 01:25:39 434.975-435.025
LO-87 24 Aug 01:18:08 01:19:16 11° 272° (W) 01:20:24 145.935 - 145.965
AIST 2D 24 Aug 01:23:12 01:26:46 70° 286° (WNW) 01:30:18 435.315
VELOX 1 24 Aug 01:25:28 01:29:55 69° 257° (WSW) 01:34:24 145.980
M-CUBED/EXP-1 PRIME 24 Aug 01:27:34 01:31:53 51° 106° (ESE) 01:35:52 437.505
50 SAT 24 Aug 01:32:19 01:35:41 58° 71° (ENE) 01:39:04 437.505
NANOSAT C BR1 24 Aug 01:33:33 01:37:40 52° 100° (E) 01:41:46 145.865
ESTCUBE 1 24 Aug 01:34:28 01:37:27 17° 271° (W) 01:40:26 437.505/2401.250
POLYITAN 1 24 Aug 01:41:11 01:45:24 68° 103° (ESE) 01:49:36 437.675
UNISAT 6 24 Aug 01:44:38 01:46:26 12° 306° (NW) 01:48:13 437.425
YUBILEINY 24 Aug 01:49:43 01:56:46 26° 54° (NE) 02:03:45 435.215
FO-29 24 Aug 01:51:59 01:54:06 12° 318° (NW) 01:56:10 435.910
EO-79 24 Aug 01:56:06 02:00:21 87° 280° (W) 02:04:33 145.935-145.965
QB50P2 24 Aug 01:56:33 02:00:48 79° 285° (WNW) 02:05:01 145.880/145.840
SO-50 24 Aug 02:02:34 02:06:29 28° 333° (NNW) 02:10:25 436.795
BUGSAT 1 24 Aug 02:10:10 02:13:50 33° 97° (E) 02:17:30 437.445
PCSat 24 Aug 02:14:00 02:18:17 23° 336° (NNW) 02:22:36 145.827
DUCHIFAT 1 24 Aug 02:22:23 02:26:31 60° 289° (WNW) 02:30:38 145.980
UKube-1 24 Aug 02:25:04 02:29:23 78° 255° (WSW) 02:33:46 .
BEESAT 24 Aug 02:30:16 02:33:54 22° 58° (ENE) 02:37:32 436.000
NO-84 24 Aug 02:34:31 02:37:19 49° 150° (SSE) 02:40:04 435.350 FM
SPROUT 24 Aug 02:50:00 02:50:50 10° 275° (W) 02:51:39 437.525
DX 1 24 Aug 02:53:57 02:57:50 30° 264° (W) 03:01:45 434.975-435.025
Gurwin Techsat 1B 24 Aug 02:57:22 03:02:10 33° 95° (E) 03:06:55 435.225
Oscar 19 24 Aug 02:58:17 03:03:20 47° 99° (E) 03:08:20 437.125/150
M-CUBED/EXP-1 PRIME 24 Aug 03:02:22 03:06:00 25° 306° (NW) 03:09:26 437.505
ITUPSAT 1 24 Aug 03:05:46 03:10:10 39° 65° (ENE) 03:14:37 437.325
50 SAT 24 Aug 03:07:06 03:08:42 13° 270° (W) 03:10:17 437.505
NANOSAT C BR1 24 Aug 03:09:52 03:13:05 22° 299° (WNW) 03:16:19 145.865
POLYITAN 1 24 Aug 03:17:54 03:20:44 18° 302° (WNW) 03:23:35 437.675
MOZHAYETS 4 24 Aug 03:22:32 03:26:52 45° 67° (ENE) 03:31:15
EO-79 24 Aug 03:33:20 03:35:28 14° 305° (NW) 03:37:36 145.935-145.965
QB50P2 24 Aug 03:34:00 03:35:54 13° 306° (NW) 03:37:47 145.880/145.840
SO-50 24 Aug 03:45:19 03:48:19 17° 357° (N) 03:51:20 436.795
BUGSAT 1 24 Aug 03:45:38 03:49:09 29° 295° (WNW) 03:52:40 437.445
YUBILEINY 24 Aug 03:46:13 03:55:00 86° 79° (ENE) 04:03:44 435.215
CUBESAT XI-V 24 Aug 03:51:43 03:55:25 24° 60° (ENE) 03:59:09 437.345
AO-7 24 Aug 03:55:32 04:01:48 23° 88° (E) 04:08:00 .
PCSat 24 Aug 04:00:12 04:03:39 17° 2° (N) 04:07:07 145.827
DUCHIFAT 1 24 Aug 04:01:12 04:01:21 10° 309° (NW) 04:01:30 145.980
UKube-1 24 Aug 04:05:08 04:06:10 11° 275° (W) 04:07:12 .
BEESAT 24 Aug 04:06:33 04:11:17 65° 258° (WSW) 04:16:02 436.000
NO-84 24 Aug 04:11:55 04:14:42 50° 350° (N) 04:17:31 435.350 FM
ITAMSAT 1 24 Aug 04:25:14 04:29:25 24° 92° (E) 04:33:35 435.822/435.867
Gurwin Techsat 1B 24 Aug 04:37:11 04:42:17 47° 294° (WNW) 04:47:20 435.225
Oscar 19 24 Aug 04:37:53 04:42:31 33° 299° (WNW) 04:47:08 437.125/150
ITUPSAT 1 24 Aug 04:43:48 04:48:05 33° 264° (W) 04:52:23 437.325
KKS-1 24 Aug 04:47:15 04:51:17 35° 64° (ENE) 04:55:21 437.445
MOZHAYETS 4 24 Aug 05:00:21 05:04:13 27° 267° (W) 05:08:08
STARS 24 Aug 05:16:41 05:20:32 30° 63° (ENE) 05:24:22 437.465
SO-50 24 Aug 05:26:36 05:30:16 23° 21° (NNE) 05:33:57 436.795
CUBESAT XI-V 24 Aug 05:27:51 05:32:27 58° 259° (W) 05:37:07 437.345
BEESAT 3 24 Aug 05:40:25 05:44:13 42° 124° (SE) 05:48:04 437.485
YUBILEINY 24 Aug 05:44:01 05:50:47 26° 283° (WNW) 05:57:33 435.215
PCSat 24 Aug 05:44:20 05:48:55 27° 28° (NNE) 05:53:29 145.827
AO-7 24 Aug 05:47:25 05:55:50 83° 110° (ESE) 06:04:09 .
NO-84 24 Aug 05:49:31 05:52:20 52° 12° (NNE) 05:55:14 435.350 FM
AO-85 24 Aug 05:51:11 05:54:42 32° 121° (ESE) 05:58:15 145.980
DOVE 4 24 Aug 05:56:40 05:59:19 15° 86° (E) 06:01:52 437.250
BEESAT 2 24 Aug 06:02:21 06:05:45 27° 119° (ESE) 06:09:11 435.950
ITAMSAT 1 24 Aug 06:04:11 06:09:17 61° 292° (WNW) 06:14:22 435.822/435.867
Gurwin Techsat 1B 24 Aug 06:19:40 06:21:01 11° 315° (NW) 06:22:24 435.225
KKS-1 24 Aug 06:23:46 06:27:50 34° 263° (W) 06:31:56 437.445
KAITUO 1B 24 Aug 06:48:27 06:49:50 12° 87° (E) 06:51:14 145.475/437.950
STARS 24 Aug 06:52:40 06:56:47 38° 262° (W) 07:00:55 437.465
CUTE-I 24 Aug 06:58:06 07:01:59 20° 89° (E) 07:05:50 437.470
SO-50 24 Aug 07:06:55 07:11:29 69° 44° (NE) 07:16:03 436.795
NUDT-PHONESAT 24 Aug 07:14:49 07:17:42 20° 92° (E) 07:20:35 437.300
BEESAT 3 24 Aug 07:18:07 07:21:53 36° 324° (NW) 07:25:40 437.485
STRAND 1 24 Aug 07:21:17 07:26:06 44° 65° (ENE) 07:30:56 437.568
XW-2D 24 Aug 07:21:42 07:25:13 32° 96° (E) 07:28:43 145.860 - 145.880
LilacSat-2 24 Aug 07:21:47 07:25:22 34° 96° (E) 07:28:54 437.200
NO-84 24 Aug 07:26:54 07:29:42 45° 211° (SSW) 07:32:39 435.350 FM
PCSat 24 Aug 07:27:38 07:33:06 82° 51° (NE) 07:38:32 145.827
AO-85 24 Aug 07:31:18 07:35:00 41° 322° (NW) 07:38:49 145.980
XW-2B 24 Aug 07:32:46 07:36:27 40° 98° (E) 07:40:05 145.730 - 145.750
DOVE 4 24 Aug 07:33:05 07:37:41 76° 286° (WNW) 07:41:59 437.250
BEESAT 2 24 Aug 07:39:21 07:43:18 51° 319° (NW) 07:47:18 435.950
HO-68 24 Aug 07:40:23 07:45:33 21° 87° (E) 07:50:42 435.675
AO-7 24 Aug 07:40:45 07:47:54 33° 313° (NW) 07:55:01 .
ITAMSAT 1 24 Aug 07:45:21 07:47:47 13° 312° (NW) 07:50:14 435.822/435.867
XW-2C 24 Aug 07:51:57 07:55:49 66° 102° (ESE) 07:59:38 145.795 - 145.815
XW-2F 24 Aug 08:01:14 08:05:06 79° 104° (ESE) 08:08:56 145.980 - 146.000
CUTE 1.7 + AOD 2 24 Aug 08:06:01 08:09:23 22° 91° (E) 08:12:44 437.475
KAITUO 1B 24 Aug 08:20:32 08:24:22 80° 286° (WNW) 08:28:10 145.475/437.950
FO-29 24 Aug 08:37:08 08:43:17 32° 59° (ENE) 08:48:52 435.910
CUTE-I 24 Aug 08:37:17 08:42:38 75° 289° (WNW) 08:47:56 437.470
UWE-3 24 Aug 08:38:26 08:41:07 16° 89° (E) 08:43:49 435.000/436.395/437.385
SEEDS 24 Aug 08:46:48 08:50:44 34° 96° (E) 08:54:36 437.485
SO-50 24 Aug 08:47:58 08:51:33 23° 244° (WSW) 08:55:09 436.795
NUDT-PHONESAT 24 Aug 08:48:12 08:51:46 41° 291° (WNW) 08:55:19 437.300
CUBEBUG 2 24 Aug 08:52:15 08:56:05 33° 96° (E) 08:59:58 437.445
XW-2A 24 Aug 08:55:51 08:58:56 31° 97° (E) 09:02:00 145.665 - 145.685
XW-2D 24 Aug 08:56:02 08:59:20 28° 295° (WNW) 09:02:38 145.860 - 145.880
LilacSat-2 24 Aug 08:56:14 08:59:34 27° 295° (WNW) 09:02:52 437.200
BEESAT 3 24 Aug 08:58:02 09:00:31 15° 347° (NNW) 09:02:59 437.485
STRAND 1 24 Aug 09:00:49 09:05:25 33° 265° (W) 09:10:01 437.568
XW-2B 24 Aug 09:07:21 09:10:26 23° 297° (WNW) 09:13:30 145.730 - 145.750
O/OREOS (USA 219) 24 Aug 09:08:57 09:11:42 16° 100° (E) 09:14:29 437.305
ZACube-1 24 Aug 09:10:01 09:13:07 19° 90° (E) 09:16:15 437.345
PCSat 24 Aug 09:11:53 09:15:54 21° 252° (WSW) 09:19:53 145.827
DOVE 4 24 Aug 09:12:23 09:14:32 13° 308° (NW) 09:16:38 437.250
AO-85 24 Aug 09:13:53 09:16:25 16° 346° (NNW) 09:19:00 145.980
BEESAT 2 24 Aug 09:19:04 09:21:54 18° 341° (NNW) 09:24:46 435.950
AAUSAT CUBESAT 2 24 Aug 09:21:45 09:25:40 37° 97° (E) 09:29:33 437.432
Tancredo 1 24 Aug 09:26:01 09:28:06 18° 146° (SE) 09:30:10 437.200
HO-68 24 Aug 09:27:07 09:34:19 85° 106° (ESE) 09:41:31 435.675
XW-2C 24 Aug 09:27:11 09:29:34 16° 301° (WNW) 09:31:56 145.795 - 145.815
AO-73 24 Aug 09:28:44 09:32:20 25° 93° (E) 09:35:59 145.935
AO-7 24 Aug 09:34:23 09:38:13 14° 338° (NNW) 09:42:04 .
UNISAT 6 24 Aug 09:34:29 09:38:03 26° 63° (ENE) 09:41:37 437.425
XW-2F 24 Aug 09:36:41 09:38:42 14° 302° (WNW) 09:40:41 145.980 - 146.000
CUTE 1.7 + AOD 2 24 Aug 09:41:19 09:45:29 50° 290° (WNW) 09:49:38 437.475
KAITUO 1B 24 Aug 09:56:37 09:57:42 11° 305° (NW) 09:58:48 145.475/437.950
ISS 24 Aug 09:59:25 10:01:10 14° 141° (SE) 10:02:56 437.550
nSIGHT-1 24 Aug 10:02:54 10:04:52 15° 142° (SE) 10:06:50 .
TIGRISAT 24 Aug 10:07:53 10:11:59 47° 69° (ENE) 10:16:05 435.000
Oscar 11 24 Aug 10:09:24 10:13:37 45° 98° (E) 10:17:48 .
PRISM 24 Aug 10:10:45 10:14:40 40° 67° (ENE) 10:18:35 437.425
UWE-3 24 Aug 10:13:47 10:18:01 69° 287° (WNW) 10:22:21 435.000/436.395/437.385
CUTE-I 24 Aug 10:18:37 10:21:51 17° 309° (NW) 10:25:05 437.470
FO-29 24 Aug 10:20:42 10:28:01 69° 257° (WSW) 10:34:32 435.910
SEEDS 24 Aug 10:22:34 10:26:22 31° 295° (WNW) 10:30:08 437.485
XW-2A 24 Aug 10:28:48 10:31:32 23° 295° (WNW) 10:34:18 145.665 - 145.685
CUBEBUG 2 24 Aug 10:28:57 10:32:43 32° 294° (WNW) 10:36:32 437.445
AIST 2D 24 Aug 10:31:59 10:33:14 12° 58° (ENE) 10:34:30 435.315
Max Valier Satellite 24 Aug 10:32:55 10:35:17 16° 90° (E) 10:37:39 145.860
BEESAT 3 24 Aug 10:37:14 10:39:35 15° 11° (N) 10:41:57 437.485
M-CUBED/EXP-1 PRIME 24 Aug 10:44:08 10:48:01 27° 55° (NE) 10:51:57 437.505
ZACube-1 24 Aug 10:45:32 10:49:44 58° 289° (WNW) 10:54:03 437.345
O/OREOS (USA 219) 24 Aug 10:46:04 10:50:33 76° 300° (WNW) 10:55:04 437.305
AO-85 24 Aug 10:55:53 10:58:20 15° 11° (NNE) 11:00:53 145.980
AAUSAT CUBESAT 2 24 Aug 10:57:24 11:01:02 29° 296° (WNW) 11:04:38 437.432
NANOSAT C BR1 24 Aug 10:57:54 10:59:44 13° 54° (NE) 11:01:34 145.865
BEESAT 2 24 Aug 10:58:55 11:01:08 14° 5° (N) 11:03:21 435.950
Tancredo 1 24 Aug 10:59:59 11:02:51 59° 165° (SSE) 11:05:44 437.200
AO-73 24 Aug 11:04:40 11:08:44 43° 292° (WNW) 11:12:52 145.935
POLYITAN 1 24 Aug 11:05:12 11:07:43 16° 57° (ENE) 11:10:15 437.675
RS-15 24 Aug 11:10:19 11:21:24 43° 110° (ESE) 11:32:29 29.354- 29.394
UNISAT 6 24 Aug 11:10:32 11:14:37 42° 262° (W) 11:18:42 437.425
HO-68 24 Aug 11:15:32 11:21:23 28° 310° (NW) 11:27:14 435.675
EO-88 24 Aug 11:18:21 11:21:48 36° 97° (E) 11:25:13 145.990 - 145.960
EO-79 24 Aug 11:19:15 11:22:21 20° 60° (ENE) 11:25:28 145.935-145.965
QB50P2 24 Aug 11:19:41 11:22:56 22° 61° (ENE) 11:26:11 145.880/145.840
AO-7 24 Aug 11:25:40 11:27:30 11° 6° (N) 11:29:20 .
DELFI C3 24 Aug 11:29:52 11:33:53 79° 105° (ESE) 11:37:51 145.870
ISS 24 Aug 11:33:54 11:37:06 47° 159° (SSE) 11:40:17 437.550
nSIGHT-1 24 Aug 11:37:31 11:40:43 51° 160° (SSE) 11:43:54 .
DUCHIFAT 1 24 Aug 11:44:20 11:47:51 27° 63° (ENE) 11:51:23 145.980
ESTCUBE 1 24 Aug 11:45:13 11:45:53 10° 84° (E) 11:46:33 437.505/2401.250
TIGRISAT 24 Aug 11:45:32 11:48:55 23° 268° (W) 11:52:19 435.000
Oscar 11 24 Aug 11:45:57 11:49:33 26° 298° (WNW) 11:53:09 .
PRISM 24 Aug 11:46:32 11:50:04 26° 266° (W) 11:53:36 437.425
UWE-3 24 Aug 11:52:23 11:53:44 11° 306° (NW) 11:55:07 435.000/436.395/437.385
AIST 2D 24 Aug 12:02:23 12:05:53 82° 257° (WSW) 12:09:26 435.315
Max Valier Satellite 24 Aug 12:05:48 12:09:26 53° 288° (WNW) 12:13:04 145.860
FO-29 24 Aug 12:09:59 12:14:04 16° 276° (W) 12:17:57 435.910
BEESAT 3 24 Aug 12:14:38 12:18:19 32° 34° (NE) 12:21:56 437.485
M-CUBED/EXP-1 PRIME 24 Aug 12:17:36 12:22:09 55° 254° (WSW) 12:26:45 437.505
ZACube-1 24 Aug 12:25:05 12:25:11 10° 308° (NW) 12:25:18 437.345
O/OREOS (USA 219) 24 Aug 12:27:50 12:30:46 17° 322° (NW) 12:33:42 437.305
NANOSAT C BR1 24 Aug 12:30:35 12:34:46 79° 73° (ENE) 12:38:58 145.865
Tancredo 1 24 Aug 12:35:02 12:37:56 82° 187° (S) 12:40:51 437.200
AO-85 24 Aug 12:36:03 12:39:51 34° 35° (NE) 12:43:54 145.980
LO-87 24 Aug 12:36:29 12:39:51 40° 98° (E) 12:43:12 145.935 - 145.965
BEESAT 2 24 Aug 12:36:45 12:40:11 25° 28° (NNE) 12:43:36 435.950
POLYITAN 1 24 Aug 12:38:48 12:42:58 79° 254° (WSW) 12:47:12 437.675
Oscar 19 24 Aug 12:43:05 12:47:04 23° 56° (NE) 12:51:03 437.125/150
Gurwin Techsat 1B 24 Aug 12:46:28 12:50:02 19° 53° (NE) 12:53:37 435.225
SPROUT 24 Aug 12:51:33 12:53:18 12° 86° (E) 12:55:03 437.525
EO-88 24 Aug 12:52:21 12:55:19 23° 296° (WNW) 12:58:16 145.990 - 145.960
EO-79 24 Aug 12:53:39 12:57:47 57° 259° (W) 13:01:56 145.935-145.965
QB50P2 24 Aug 12:54:20 12:58:27 51° 260° (W) 13:02:34 145.880/145.840
BUGSAT 1 24 Aug 13:04:49 13:08:43 49° 70° (ENE) 13:12:38 437.445
DELFI C3 24 Aug 13:05:53 13:08:06 15° 303° (WNW) 13:10:19 145.870
ISS 24 Aug 13:10:10 13:13:28 85° 176° (S) 13:16:45 437.550
VELOX 1 24 Aug 13:10:49 13:13:30 16° 88° (E) 13:16:08 145.980
AO-7 24 Aug 13:11:35 13:17:07 20° 34° (NNE) 13:22:39 .
nSIGHT-1 24 Aug 13:13:44 13:17:01 85° 178° (S) 13:20:16 .
ESTCUBE 1 24 Aug 13:18:57 13:23:32 71° 104° (ESE) 13:28:04 437.505/2401.250
DUCHIFAT 1 24 Aug 13:19:29 13:23:24 39° 262° (W) 13:27:20 145.980
RS-15 24 Aug 13:20:42 13:33:06 80° 316° (NW) 13:45:28 29.354- 29.394
BEESAT 3 24 Aug 13:52:09 13:56:03 49° 235° (SW) 13:59:53 437.485
UKube-1 24 Aug 14:08:15 14:09:51 12° 86° (E) 14:11:26 .
NANOSAT C BR1 24 Aug 14:08:56 14:11:03 13° 273° (W) 14:13:09 145.865
Tancredo 1 24 Aug 14:10:13 14:12:55 36° 204° (SSW) 14:15:38 437.200
LO-87 24 Aug 14:10:25 14:13:04 20° 297° (WNW) 14:15:41 145.935 - 145.965
ITAMSAT 1 24 Aug 14:12:22 14:15:01 14° 49° (NE) 14:17:40 435.822/435.867
BEESAT 2 24 Aug 14:14:18 14:18:23 79° 230° (SW) 14:22:25 435.950
AO-85 24 Aug 14:16:19 14:20:25 50° 234° (SW) 14:24:49 145.980
POLYITAN 1 24 Aug 14:18:58 14:19:30 10° 275° (W) 14:20:02 437.675
Oscar 19 24 Aug 14:20:45 14:25:55 72° 257° (WSW) 14:31:07 437.125/150
50 SAT 24 Aug 14:21:03 14:23:55 25° 95° (E) 14:26:44 437.505
Gurwin Techsat 1B 24 Aug 14:23:57 14:29:17 86° 73° (ENE) 14:34:39 435.225
SPROUT 24 Aug 14:25:34 14:29:51 89° 287° (WNW) 14:34:05 437.525
DX 1 24 Aug 14:35:55 14:39:47 30° 95° (E) 14:43:37 434.975-435.025
BUGSAT 1 24 Aug 14:41:20 14:44:22 20° 268° (W) 14:47:23 437.445
VELOX 1 24 Aug 14:46:02 14:50:29 75° 288° (WNW) 14:54:52 145.980
ISS 24 Aug 14:46:39 14:49:52 54° 198° (SSW) 14:53:04 437.550
nSIGHT-1 24 Aug 14:50:07 14:53:18 50° 200° (SSW) 14:56:27 .
ESTCUBE 1 24 Aug 14:56:38 14:59:52 19° 302° (WNW) 15:03:05 437.505/2401.250
AO-7 24 Aug 15:00:10 15:08:11 54° 58° (ENE) 15:16:14 .
YUBILEINY 24 Aug 15:00:43 15:06:49 22° 74° (ENE) 15:12:54 435.215
RS-15 24 Aug 15:35:40 15:47:33 48° 347° (NNW) 15:59:11 29.354- 29.394
UKube-1 24 Aug 15:42:13 15:46:34 86° 104° (ESE) 15:50:53 .
ITAMSAT 1 24 Aug 15:48:26 15:53:34 64° 69° (ENE) 15:58:43 435.822/435.867
50 SAT 24 Aug 15:53:39 15:56:33 27° 294° (WNW) 15:59:27 437.505
BEESAT 2 24 Aug 15:53:47 15:55:27 12° 249° (WSW) 15:57:06 435.950
BEESAT 24 Aug 16:01:22 16:05:01 21° 91° (E) 16:08:38 436.000
SPROUT 24 Aug 16:02:52 16:05:08 14° 305° (NW) 16:07:23 437.525
Oscar 19 24 Aug 16:04:06 16:06:11 12° 276° (W) 16:08:17 437.125/150
Gurwin Techsat 1B 24 Aug 16:06:28 16:09:57 17° 273° (W) 16:13:27 435.225
DX 1 24 Aug 16:12:01 16:16:02 37° 295° (WNW) 16:20:02 434.975-435.025
ISS 24 Aug 16:23:43 16:25:51 16° 217° (SW) 16:27:58 437.550
VELOX 1 24 Aug 16:24:07 16:26:11 13° 307° (NW) 16:28:14 145.980
nSIGHT-1 24 Aug 16:27:13 16:29:08 15° 219° (SW) 16:31:02 .
HO-68 24 Aug 16:34:15 16:35:36 11° 28° (NNE) 16:36:58 435.675
ITUPSAT 1 24 Aug 16:37:47 16:42:19 41° 98° (E) 16:46:51 437.325
MOZHAYETS 4 24 Aug 16:48:29 16:52:59 48° 99° (E) 16:57:28
CUTE-I 24 Aug 16:48:59 16:51:16 13° 47° (NE) 16:53:33 437.470
AO-7 24 Aug 16:53:04 17:01:06 49° 259° (W) 17:09:10 .
YUBILEINY 24 Aug 16:53:29 17:02:16 81° 97° (E) 17:11:02 435.215
DOVE 4 24 Aug 17:06:04 17:10:40 33° 64° (ENE) 17:15:08 437.250
XW-2F 24 Aug 17:16:03 17:17:18 11° 56° (NE) 17:18:34 145.980 - 146.000
CUBESAT XI-V 24 Aug 17:18:53 17:22:46 24° 92° (E) 17:26:36 437.345
UKube-1 24 Aug 17:19:27 17:22:01 16° 305° (NW) 17:24:34 .
ITAMSAT 1 24 Aug 17:29:24 17:33:29 23° 269° (W) 17:37:34 435.822/435.867
O/OREOS (USA 219) 24 Aug 17:32:30 17:35:41 18° 40° (NE) 17:38:51 437.305
KAITUO 1B 24 Aug 17:33:45 17:35:40 14° 58° (ENE) 17:37:38 145.475/437.950
BEESAT 24 Aug 17:38:28 17:43:11 61° 291° (WNW) 17:47:53 436.000
RS-15 24 Aug 17:51:08 18:03:06 51° 20° (NNE) 18:14:34 29.354- 29.394
NUDT-PHONESAT 24 Aug 17:59:21 18:02:14 22° 63° (ENE) 18:05:08 437.300
XW-2D 24 Aug 18:08:04 18:11:31 35° 68° (ENE) 18:15:02 145.860 - 145.880
KKS-1 24 Aug 18:08:36 18:12:32 30° 95° (E) 18:16:25 437.445
LilacSat-2 24 Aug 18:08:47 18:12:18 37° 68° (ENE) 18:15:52 437.200
HO-68 24 Aug 18:15:08 18:21:11 31° 52° (NE) 18:27:16 435.675
ITUPSAT 1 24 Aug 18:15:50 18:20:04 32° 298° (WNW) 18:24:18 437.325
XW-2B 24 Aug 18:19:05 18:22:40 44° 70° (ENE) 18:26:18 145.730 - 145.750
CUTE-I 24 Aug 18:25:03 18:30:16 55° 67° (ENE) 18:35:29 437.470
MOZHAYETS 4 24 Aug 18:26:03 18:29:56 27° 298° (WNW) 18:33:48
STARS 24 Aug 18:36:10 18:39:49 25° 94° (E) 18:43:25 437.465
XW-2C 24 Aug 18:38:12 18:41:57 71° 73° (ENE) 18:45:46 145.795 - 145.815
DOVE 4 24 Aug 18:43:14 18:48:14 45° 262° (W) 18:53:05 437.250
XW-2F 24 Aug 18:47:01 18:50:47 84° 75° (ENE) 18:54:36 145.980 - 146.000
YUBILEINY 24 Aug 18:52:33 19:00:07 31° 302° (WNW) 19:07:41 435.215
AO-7 24 Aug 18:54:36 18:56:08 11° 283° (WNW) 18:57:41 .
CUBESAT XI-V 24 Aug 18:55:49 19:00:25 52° 291° (WNW) 19:04:59 437.345
CUTE 1.7 + AOD 2 24 Aug 19:03:42 19:07:28 31° 65° (ENE) 19:11:15 437.475
KAITUO 1B 24 Aug 19:05:26 19:09:09 76° 257° (WSW) 19:12:57 145.475/437.950
O/OREOS (USA 219) 24 Aug 19:11:14 19:15:48 84° 60° (ENE) 19:20:23 437.305
BEESAT 24 Aug 19:18:10 19:20:04 12° 310° (NW) 19:21:58 436.000
XW-2A 24 Aug 19:32:22 19:35:12 26° 66° (ENE) 19:38:05 145.665 - 145.685
NUDT-PHONESAT 24 Aug 19:32:27 19:35:56 39° 262° (W) 19:39:26 437.300
Oscar 11 24 Aug 19:36:35 19:38:08 12° 53° (NE) 19:39:42 .
UWE-3 24 Aug 19:40:37 19:44:01 25° 63° (ENE) 19:47:25 435.000/436.395/437.385
XW-2D 24 Aug 19:42:41 19:45:48 24° 267° (W) 19:48:57 145.860 - 145.880
SEEDS 24 Aug 19:43:24 19:47:28 47° 69° (ENE) 19:51:34 437.485
LilacSat-2 24 Aug 19:43:37 19:46:42 23° 267° (W) 19:49:50 437.200
KKS-1 24 Aug 19:45:03 19:49:11 38° 294° (WNW) 19:53:16 437.445
XW-2B 24 Aug 19:54:17 19:57:05 20° 269° (W) 19:59:55 145.730 - 145.750
CUBEBUG 2 24 Aug 19:55:33 19:59:39 52° 70° (ENE) 20:03:42 437.445
HO-68 24 Aug 20:01:13 20:08:22 77° 254° (WSW) 20:15:35 435.675
RS-15 24 Aug 20:04:43 20:17:00 88° 229° (SW) 20:28:36 29.354- 29.394
CUTE-I 24 Aug 20:06:03 20:10:37 28° 267° (W) 20:15:11 437.470
ZACube-1 24 Aug 20:11:04 20:14:36 28° 64° (ENE) 20:18:11 437.345
STARS 24 Aug 20:12:11 20:16:21 44° 293° (WNW) 20:20:30 437.465
XW-2C 24 Aug 20:14:54 20:16:38 13° 272° (W) 20:18:22 145.795 - 145.815
AAUSAT CUBESAT 2 24 Aug 20:16:45 20:20:47 50° 70° (ENE) 20:24:52 437.432
XW-2F 24 Aug 20:24:31 20:25:30 11° 274° (W) 20:26:28 145.980 - 146.000
AO-73 24 Aug 20:29:28 20:33:16 37° 67° (ENE) 20:37:07 145.935
CUBESAT XI-V 24 Aug 20:36:02 20:36:45 10° 311° (NW) 20:37:30 437.345
CUTE 1.7 + AOD 2 24 Aug 20:39:21 20:43:15 35° 264° (W) 20:47:12 437.475
DELFI C3 24 Aug 20:47:48 20:49:52 14° 57° (ENE) 20:51:57 145.870
O/OREOS (USA 219) 24 Aug 20:52:01 20:54:35 15° 261° (W) 20:57:08 437.305
STRAND 1 24 Aug 21:04:40 21:09:42 56° 101° (E) 21:14:42 437.568
XW-2A 24 Aug 21:05:06 21:07:55 25° 265° (W) 21:10:47 145.665 - 145.685
Oscar 11 24 Aug 21:09:12 21:13:29 69° 72° (ENE) 21:17:49 .
UWE-3 24 Aug 21:16:22 21:20:19 42° 262° (W) 21:24:17 435.000/436.395/437.385
Max Valier Satellite 24 Aug 21:17:13 21:19:42 18° 61° (ENE) 21:22:12 145.860
SEEDS 24 Aug 21:20:04 21:23:24 22° 269° (W) 21:26:46 437.485
FO-29 24 Aug 21:27:38 21:28:49 11° 79° (E) 21:29:58 435.910
CUBEBUG 2 24 Aug 21:33:31 21:36:35 19° 269° (W) 21:39:39 437.445
ZACube-1 24 Aug 21:46:59 21:50:49 36° 263° (W) 21:54:41 437.345
HO-68 24 Aug 21:52:40 21:57:19 18° 275° (W) 22:02:01 435.675
AAUSAT CUBESAT 2 24 Aug 21:53:19 21:56:31 21° 269° (W) 21:59:44 437.432
EO-88 24 Aug 22:01:08 22:04:31 37° 68° (ENE) 22:07:55 145.990 - 145.960
AO-73 24 Aug 22:06:05 22:09:36 27° 266° (W) 22:13:11 145.935
PCSat 24 Aug 22:15:58 22:20:05 22° 109° (ESE) 22:24:12 145.827
RS-15 24 Aug 22:18:02 22:27:57 32° 256° (WSW) 22:37:29 29.354- 29.394
DELFI C3 24 Aug 22:20:03 22:24:03 86° 255° (WSW) 22:28:06 145.870
STRAND 1 24 Aug 22:44:20 22:48:37 28° 301° (WNW) 22:52:52 437.568
Oscar 11 24 Aug 22:47:22 22:50:07 16° 272° (W) 22:52:52 .
ESTCUBE 1 24 Aug 22:48:29 22:51:48 20° 58° (ENE) 22:55:08 437.505/2401.250
Max Valier Satellite 24 Aug 22:49:39 22:53:13 51° 259° (W) 22:56:49 145.860
UNISAT 6 24 Aug 22:56:10 22:59:48 26° 94° (E) 23:03:29 437.425
SO-50 24 Aug 23:06:47 23:10:41 29° 119° (ESE) 23:14:34 436.795
FO-29 24 Aug 23:09:41 23:15:18 67° 102° (ESE) 23:20:30 435.910
LO-87 24 Aug 23:17:33 23:20:54 39° 69° (ENE) 23:24:15 145.935 - 145.965
PRISM 24 Aug 23:21:32 23:25:08 29° 95° (E) 23:28:43 437.425
TIGRISAT 24 Aug 23:29:43 23:33:55 48° 100° (E) 23:38:09 435.000
EO-88 24 Aug 23:35:27 23:38:19 22° 267° (W) 23:41:12 145.990 - 145.960
SPROUT 24 Aug 23:49:31 23:52:39 20° 60° (ENE) 23:55:48 437.525
PCSat 24 Aug 23:57:28 00:02:55 79° 310° (NW) 00:08:24 145.827
DELFI C3 24 Aug 23:58:39 23:59:29 11° 275° (W) 00:00:19 145.870
VELOX 1 25 Aug 00:12:46 00:16:34 28° 62° (ENE) 00:20:23 145.980
POLYITAN 1 25 Aug 00:19:41 00:21:14 12° 86° (E) 00:22:47 437.675
ESTCUBE 1 25 Aug 00:23:41 00:28:11 66° 257° (WSW) 00:32:44 437.505/2401.250
UNISAT 6 25 Aug 00:32:35 00:36:42 43° 292° (WNW) 00:40:50 437.425
EO-79 25 Aug 00:33:24 00:36:02 16° 89° (E) 00:38:39 145.935-145.965
QB50P2 25 Aug 00:34:04 00:36:56 18° 90° (E) 00:39:49 145.880/145.840
